Paso Robles, CA

6:03 AM PDT on August 23, 2017 (GMT -0700)
Paso Robles Municipal

Weather History for KPRB - September, 2014

Change the Weather History Date:

Tuesday, September 23, 2014

  Actual Average Record
Temperature  
Mean Temperature 73 °F 68 °F  
Max Temperature 92 °F 87 °F 104 °F (2002)
Min Temperature 53 °F 49 °F 40 °F (1972)
Degree Days  
Heating Degree Days 0 1  
Month to date heating degree days 0 11  
Since 1 July heating degree days 0 19  
Cooling Degree Days 8 4  
Month to date cooling degree days 221 133  
Year to date cooling degree days 1228 866  
Growing Degree Days 22 (Base 50)    
Moisture  
Dew Point 52 °F    
Average Humidity 53    
Maximum Humidity 84    
Minimum Humidity 21    
Precipitation  
Precipitation 0.00 in 0.01 in 0.58 in (1958)
Month to date precipitation 0.00 0.13  
Year to date precipitation 4.46 9.03  
Since 1 July precipitation T  
Sea Level Pressure  
Sea Level Pressure 29.94 in    
Wind  
Wind Speed 6 mph (WSW)    
Max Wind Speed 18 mph    
Max Gust Speed 22 mph    
Visibility 10 miles    
Events      
T = Trace of Precipitation, MM = Missing Value Source: NWS Daily Summary

Daily Weather History Graph

Daily Weather History Graph

Search for Another Location

Airport or City:

Trip Planner

Search our weather history database for the weather conditions in past years. The results will help you decide how hot, cold, wet, or windy it might be!

Date:

Astronomy

Sep. 23, 2014 Rise Set
Actual Time 6:51 AM PDT 6:57 PM PDT
Civil Twilight 6:25 AM PDT 7:23 PM PDT
Nautical Twilight 5:56 AM PDT 7:52 PM PDT
Astronomical Twilight 5:25 AM PDT 8:22 PM PDT
Moon 6:20 AM PDT 6:40 PM PDT
Length of Visible Light 12h 57m
Length of Day
12h 06m
Waning Crescent, 0% of the Moon is Illuminated
Sep 23
Waning Crescent
Sep 23
New
Oct 1
First Quarter
Oct 8
Full
Oct 15
Last Quarter

Hourly Weather History & Observations

Time (PDT) Temp. Heat Index Dew Point Humidity Pressure Visibility Wind Dir Wind Speed Gust Speed Precip Events Conditions
12:53 AM 63.0 °F - 54.0 °F 72% 29.96 in 10.0 mi NW 5.8 mph - N/A   Clear
1:53 AM 61.0 °F - 53.1 °F 75% 29.96 in 10.0 mi North 4.6 mph - N/A   Clear
2:53 AM 60.1 °F - 53.1 °F 78% 29.95 in 10.0 mi South 3.5 mph - N/A   Clear
3:53 AM 57.0 °F - 51.1 °F 81% 29.94 in 10.0 mi Calm Calm - N/A   Clear
4:53 AM 55.9 °F - 50.0 °F 80% 29.95 in 10.0 mi Calm Calm - N/A   Clear
5:53 AM 55.0 °F - 48.9 °F 80% 29.96 in 10.0 mi Calm Calm - N/A   Clear
6:53 AM 54.0 °F - 48.9 °F 83% 29.99 in 10.0 mi Calm Calm - N/A   Clear
7:53 AM 57.9 °F - 51.1 °F 78% 29.99 in 10.0 mi Calm Calm - N/A   Clear
8:53 AM 64.0 °F - 54.0 °F 70% 30.00 in 10.0 mi Calm Calm - N/A   Clear
9:53 AM 68.0 °F - 54.0 °F 61% 29.99 in 10.0 mi Variable 3.5 mph - N/A   Clear
10:53 AM 75.0 °F - 54.0 °F 48% 29.99 in 10.0 mi WNW 5.8 mph - N/A   Clear
11:53 AM 81.0 °F 80.5 °F 54.0 °F 39% 29.96 in 10.0 mi Calm Calm - N/A   Clear
12:53 PM 86.0 °F - 51.1 °F 30% 29.94 in 10.0 mi Variable 4.6 mph - N/A   Clear
1:53 PM 91.0 °F - 48.9 °F 23% 29.91 in 10.0 mi SW 6.9 mph - N/A   Clear
2:53 PM 90.0 °F - 45.0 °F 21% 29.90 in 10.0 mi SSW 13.8 mph - N/A   Clear
3:53 PM 89.1 °F - 44.1 °F 21% 29.88 in 10.0 mi SSW 16.1 mph 21.9 mph N/A   Clear
4:53 PM 87.1 °F - 45.0 °F 23% 29.88 in 10.0 mi SW 11.5 mph - N/A   Clear
5:53 PM 82.9 °F - 52.0 °F 34% 29.88 in 10.0 mi SW 11.5 mph - N/A   Clear
6:53 PM 75.9 °F - 53.1 °F 45% 29.89 in 10.0 mi SSW 12.7 mph - N/A   Clear
7:53 PM 72.0 °F - 53.1 °F 51% 29.90 in 10.0 mi South 11.5 mph - N/A   Clear
8:53 PM 69.1 °F - 54.0 °F 58% 29.92 in 10.0 mi SW 5.8 mph - N/A   Clear
9:53 PM 66.0 °F - 55.0 °F 68% 29.94 in 10.0 mi WNW 10.4 mph - N/A   Clear
10:53 PM 64.0 °F - 55.9 °F 75% 29.95 in 10.0 mi WNW 6.9 mph - N/A   Clear
11:53 PM 62.1 °F - 57.0 °F 84% 29.95 in 10.0 mi WNW 9.2 mph - N/A   Clear